Home > Weather > Hohenems > Past weeks

Flag for Austria Past Weather in Hohenems, Vorarlberg, Austria — Yesterday and Last 2 Weeks

Now
72 °F

Mild.


Feels Like: 77 °F
Forecast: 51 / 81 °F
Wind: 1 mph from North

Location: Feldkirch

Current Time: Jun 27, 2016 at 8:32:50 PM

Latest Report: Jun 27, 2016 at 7:00 PM


Visibility: N/A

Pressure: 30.08 "Hg

Humidity: 48%

Dew Point: 51 °F

Location of HohenemsLocation

Past Weather in Hohenems — Graph

°F

Hohenems Temperature Yesterday

Maximum temperature yesterday: 64 °F (at 3:00 PM)
Minimum temperature yesterday: 59 °F (at 11:00 PM)
Average temperature yesterday: 61 °F

High & Low Weather Summary for the Past Weeks

 TemperatureHumidityPressure
High88 °F (Jun 23, 6:00 PM)98% (Jun 14, 6:00 AM)30.27 "Hg (Jun 14, 6:00 AM)
Low46 °F (Jun 17, 6:00 AM)41% (Jun 24, 3:00 PM)29.55 "Hg (Jun 14, 2:00 PM)
Average63 °F79%29.96 "Hg
* Reported Jun 12 7:00 PM — Jun 27 7:00 PM, Hohenems, Weather by CustomWeather, © 2016

Note: Actual official high and low records may vary slightly from our data, if they occured in-between our weather recording intervals... More about our weather records

Advertising

Hohenems Weather History for the Previous 24 Hours

Scroll right to see more
 ConditionsComfort  
Time TempWeatherWind HumidityBarometerVisibility
7:00 PM
Mon, Jun 27
72 °FMild.1 mph48%30.08 "HgN/A
6:00 PM72 °FMild.1 mph47%30.08 "HgN/A
5:00 PM72 °FMild.2 mph46%30.10 "HgN/A
4:00 PM72 °FMild.2 mph52%30.10 "HgN/A
3:00 PM70 °FMild.1 mph47%30.11 "HgN/A
2:00 PM71 °FMild.1 mph54%30.12 "HgN/A
1:00 PM69 °FMild.1 mph55%30.14 "HgN/A
12:00 PM67 °FMild.1 mph62%30.15 "HgN/A
11:00 AM64 °FOvercast.1 mph72%30.17 "Hg19 mi
10:00 AM67 °FMild.1 mph68%30.15 "HgN/A
9:00 AM63 °FMild.1 mph74%30.16 "HgN/A
8:00 AM59 °FCool.1 mph85%30.17 "HgN/A
7:00 AM57 °FOvercast.No wind93%30.18 "Hg12 mi
6:00 AM57 °FSprinkles. Cloudy.1 mph91%30.17 "HgN/A
5:00 AM58 °FCool.1 mph85%30.16 "HgN/A
4:00 AM58 °FCool.No wind88%30.15 "HgN/A
3:00 AM58 °FCool.No wind81%30.14 "HgN/A
2:00 AM59 °FCool.2 mph78%30.14 "HgN/A
1:00 AM60 °FCool.2 mph71%30.12 "HgN/A
12:00 AM59 °FCool.3 mph75%30.14 "HgN/A
11:00 PM
Sun, Jun 26
59 °FCool.3 mph79%30.13 "HgN/A
10:00 PM60 °FCool.5 mph80%30.11 "HgN/A
9:00 PM60 °FCool.3 mph80%30.09 "HgN/A
8:00 PM62 °FCool.1 mph74%30.08 "HgN/A
Weather by CustomWeather, © 2016

See weather overviewHow to use our weather pages